Weather in Zaporozh'ye

Russia / Kamchatka Krai     51°30′03″N   156°31′20″E
temp.,
°C
wind,
m/s
gust,
m/s
humid.,
%
clouds,
%
prec.,
mm/h
press.,
hPa
HPBL,
m
3 august, tue
tue300:00+11nnw6994100 0.4 1010481
03:00+11nnw9107999 0.2 1009934
06:00+8n7118485 0.2 1010808
09:00+9nne5983100 0.0 1011735
12:00+9n3482100 0.1 1012319
15:00+10nw447929 0.0 1012382
18:00+10nw558119 0.0 1012497
21:00+10nnw5682100 0.1 1012815
4 august, wed
wed400:00+10nnw569299 0.3 1012486
03:00+10n689132 0.1 1011480
06:00+9nne598718 0.1 1011626
09:00+10nnw898140 0.1 1011959
12:00+10nnw787526 0.3 1010986
15:00+11nnw797819 0.0 1010752
18:00+11nnw79765 0.1 1010724
21:00+11nw568875 0.1 1010625
5 august, thu
thu500:00+11nnw4589100 0.3 1010510
03:00+10n359174 0.2 1009368
06:00+10n5788100 0.2 1009518
09:00+10n5882100 0.0 1009618
12:00+11nnw677490 0.0 1009645
15:00+11nnw6776100 0.0 1008503
18:00+11nnw5777100 0.0 1008490
21:00+11n348484 0.0 1008191
6 august, fri
fri600:00+10nnw359114 0.0 1007354
03:00+11nnw569138 0.0 1006508
06:00+11nnw7109017 0.2 1006711
09:00+11n710790 0.0 1007733
12:00+11nw68750 0.0 1008599
15:00+11nw57804 0.0 1008558
18:00+11nw699266 0.1 1008663
21:00+11nw699272 0.1 1009575
7 august, sat
sat700:00+11nw6891100 0.4 1010603
03:00+12nw6880100 0.4 1010390
06:00+10n568470 0.4 1010572
09:00+10n468470 0.1 1011605
12:00+11nnw578290 0.2 1012549
15:00+11nnw578468 0.1 1012582
18:00+11nnw678515 0.1 1013559
21:00+10n568713 0.0 1014437